Location: Bo?a Wola
(50.4192°N, 19.7966°E)
Time: 12:34:00
(UTC+00:00)

Cosmos 1934 Rocket - Pass Details

Date: 16 September 2024
Orbit: 938 x 997 km, 83.0° (Epoch: 08 October)

Event Time Altitude Azimuth Distance (km) Brightness Sun altitude
Rises 23:38:59 0° 358° (N) 3,698 7.9 -35.7°
Reaches altitude 10° 23:42:46 10° 21° (NNE) 2,756 7.1 -35.5°
Maximum altitude 23:46:21 15° 56° (NE) 2,386 6.5 -35.3°
Drops below altitude 10° 23:49:56 10° 91° (E) 2,763 6.6 -35.1°
Sets 23:53:43 0° 113° (ESE) 3,712 7.1 -34.8°
